Change the Weather History Date:

Thursday, June 6, 2013

  Actual Average Record
Temperature  
Mean Temperature 78 °F -  
Max Temperature 84 °F 83 °F 98 °F (1997)
Min Temperature 73 °F 71 °F 64 °F (1998)
Cooling Degree Days 14    
Growing Degree Days 28 (Base 50)    
Moisture  
Dew Point 68 °F    
Average Humidity 73    
Maximum Humidity 83    
Minimum Humidity 55    
Precipitation  
Precipitation 0.00 in 0.19 in - ()
Sea Level Pressure  
Sea Level Pressure 29.85 in    
Wind  
Wind Speed 11 mph ()    
Max Wind Speed 18 mph    
Max Gust Speed 25 mph    
Visibility 6.2 miles    
Events      
Averages and records for this station are not official NWS values.
T = Trace of Precipitation, MM = Missing Value Source: Averaged Metar Reports

Daily Weather History Graph

Daily Weather History Graph

Search for Another Location

Airport or City:

Trip Planner

Search our weather history database for the weather conditions in past years. The results will help you decide how hot, cold, wet, or windy it might be!

Date:

Astronomy

Jun. 06, 2013 Rise Set
Actual Time 4:50 AM CST 6:56 PM CST
Civil Twilight 4:22 AM CST 7:24 PM CST
Nautical Twilight 3:49 AM CST 7:57 PM CST
Astronomical Twilight 3:12 AM CST 8:33 PM CST
Moon 3:01 AM CST (6/6) 4:52 PM CST (6/6)
Length of Visible Light 15h 01m
Length of Day
14h 06m
Waning Crescent, 6% of the Moon is Illuminated
Jun 6
Waning Crescent
Jun 8
New
Jun 17
First Quarter
Jun 23
Full
Jun 30
Last Quarter

Hourly Weather History & Observations

Time (CST) Temp. Heat Index Dew Point Humidity Pressure Visibility Wind Dir Wind Speed Gust Speed Precip Events Conditions
12:00 AM 73.4 °F - 68.0 °F 83% 29.89 in 6.2 mi SE 11.2 mph - N/A   Mostly Cloudy
12:30 AM 73.4 °F - 68.0 °F 83% 29.89 in 6.2 mi SE 11.2 mph - N/A   Mostly Cloudy
1:00 AM 73.4 °F - 68.0 °F 83% 29.89 in 6.2 mi SSE 13.4 mph - N/A   Mostly Cloudy
1:30 AM 73.4 °F - 68.0 °F 83% 29.89 in 6.2 mi SSE 13.4 mph - N/A   Mostly Cloudy
2:00 AM 73.4 °F - 66.2 °F 78% 29.89 in 6.2 mi SSE 11.2 mph - N/A   Mostly Cloudy
2:30 AM 73.4 °F - 66.2 °F 78% 29.89 in 6.2 mi SE 11.2 mph - N/A   Mostly Cloudy
3:00 AM 73.4 °F - 68.0 °F 83% 29.89 in 6.2 mi SE 11.2 mph - N/A   Mostly Cloudy
3:30 AM 73.4 °F - 68.0 °F 83% 29.89 in 6.2 mi ESE 8.9 mph - N/A   Mostly Cloudy
4:00 AM 73.4 °F - 68.0 °F 83% 29.89 in 6.2 mi SE 8.9 mph - N/A   Mostly Cloudy
4:30 AM 73.4 °F - 68.0 °F 83% 29.89 in 6.2 mi ESE 8.9 mph - N/A   Mostly Cloudy
5:00 AM 73.4 °F - 68.0 °F 83% 29.89 in 6.2 mi ESE 8.9 mph - N/A   Mostly Cloudy
5:30 AM 73.4 °F - 68.0 °F 83% 29.89 in 6.2 mi SE 8.9 mph - N/A   Mostly Cloudy
6:00 AM 75.2 °F - 68.0 °F 78% 29.89 in 6.2 mi SE 8.9 mph - N/A   Mostly Cloudy
6:30 AM 75.2 °F - 68.0 °F 78% 29.89 in 6.2 mi ESE 11.2 mph - N/A   Mostly Cloudy
7:00 AM 75.2 °F - 68.0 °F 78% 29.89 in 6.2 mi ESE 13.4 mph - N/A   Partly Cloudy
7:30 AM 77.0 °F - 68.0 °F 74% 29.89 in 6.2 mi ESE 11.2 mph - N/A   Scattered Clouds
8:00 AM 77.0 °F - 68.0 °F 74% 29.89 in 6.2 mi SE 11.2 mph - N/A   Scattered Clouds
8:30 AM 78.8 °F - 68.0 °F 69% 29.89 in 6.2 mi ESE 13.4 mph - N/A   Scattered Clouds
9:00 AM 78.8 °F - 68.0 °F 69% 29.89 in 6.2 mi SE 13.4 mph - N/A   Mostly Cloudy
9:30 AM 78.8 °F - 66.2 °F 65% 29.89 in 6.2 mi SE 13.4 mph - N/A   Mostly Cloudy
10:00 AM 80.6 °F 83.2 °F 68.0 °F 65% 29.89 in 6.2 mi SE 13.4 mph - N/A   Mostly Cloudy
10:30 AM 82.4 °F 85.4 °F 68.0 °F 62% 29.89 in 6.2 mi SE 11.2 mph - N/A   Mostly Cloudy
11:00 AM 82.4 °F 86.3 °F 69.8 °F 66% 29.89 in 6.2 mi ESE 11.2 mph - N/A   Mostly Cloudy
11:30 AM 82.4 °F 84.6 °F 66.2 °F 58% 29.86 in 6.2 mi SE 13.4 mph - N/A   Mostly Cloudy
12:00 PM 82.4 °F 85.4 °F 68.0 °F 62% 29.86 in 6.2 mi ESE 15.7 mph - N/A   Mostly Cloudy
12:30 PM 84.2 °F 86.6 °F 66.2 °F 55% 29.83 in 6.2 mi ESE 13.4 mph - N/A   Mostly Cloudy
1:00 PM 82.4 °F 84.6 °F 66.2 °F 58% 29.83 in 6.2 mi SE 17.9 mph - N/A   Mostly Cloudy
1:30 PM 82.4 °F 85.4 °F 68.0 °F 62% 29.83 in 6.2 mi ESE 17.9 mph - N/A   Mostly Cloudy
2:00 PM 82.4 °F 85.4 °F 68.0 °F 62% 29.86 in 6.2 mi SE 15.7 mph - N/A   Mostly Cloudy
2:30 PM 82.4 °F 85.4 °F 68.0 °F 62% 29.83 in 6.2 mi SSE 15.7 mph - N/A   Mostly Cloudy
3:00 PM 82.4 °F 86.3 °F 69.8 °F 66% 29.83 in 6.2 mi SE 13.4 mph - N/A   Mostly Cloudy
3:30 PM 80.6 °F 83.2 °F 68.0 °F 65% 29.83 in 6.2 mi SE 13.4 mph - N/A   Mostly Cloudy
4:00 PM 80.6 °F 83.2 °F 68.0 °F 65% 29.80 in 6.2 mi ESE 13.4 mph - N/A   Mostly Cloudy
4:30 PM 80.6 °F 83.2 °F 68.0 °F 65% 29.80 in 6.2 mi SE 15.7 mph - N/A   Mostly Cloudy
5:00 PM 80.6 °F 83.2 °F 68.0 °F 65% 29.80 in 6.2 mi ESE 15.7 mph - N/A   Scattered Clouds
5:30 PM 80.6 °F 83.2 °F 68.0 °F 65% 29.80 in 6.2 mi SE 13.4 mph - N/A   Scattered Clouds
6:00 PM 78.8 °F - 68.0 °F 69% 29.80 in 6.2 mi SE 15.7 mph - N/A   Mostly Cloudy
6:30 PM 78.8 °F - 68.0 °F 69% 29.80 in 6.2 mi SE 11.2 mph - N/A   Scattered Clouds
7:00 PM 77.0 °F - 68.0 °F 74% 29.80 in 6.2 mi SE 15.7 mph - N/A   Scattered Clouds
7:30 PM 77.0 °F - 68.0 °F 74% 29.83 in 6.2 mi SE 11.2 mph - N/A   Scattered Clouds
8:00 PM 77.0 °F - 69.8 °F 78% 29.83 in 6.2 mi SE 13.4 mph - N/A   Partly Cloudy
8:30 PM 77.0 °F - 69.8 °F 78% 29.80 in 6.2 mi SE 11.2 mph - N/A   Partly Cloudy
9:00 PM 77.0 °F - 69.8 °F 78% 29.80 in 6.2 mi ESE 15.7 mph - N/A   Scattered Clouds
9:30 PM 77.0 °F - 69.8 °F 78% 29.80 in 6.2 mi SE 13.4 mph - N/A   Scattered Clouds
10:00 PM 75.2 °F - 69.8 °F 83% 29.80 in 6.2 mi SE 15.7 mph - N/A   Scattered Clouds
10:30 PM 75.2 °F - 69.8 °F 83% 29.80 in 6.2 mi SE 13.4 mph - N/A   Partly Cloudy
11:00 PM 75.2 °F - 69.8 °F 83% 29.80 in 6.2 mi SE 15.7 mph - N/A   Partly Cloudy
11:30 PM 75.2 °F - 69.8 °F 83% 29.77 in 6.2 mi SE 13.4 mph 24.6 mph N/A   Partly Cloudy